Details From KMIA - Miami Intl
To KEYW - Key West Intl
Flight Number -
Tags generated
Created
Modified
Stats Distance 109 nm / 202 km
Max Altitude 0 ft / 0 m
Waypoints 2
Social Downloads 0
Likes 0
Share VATSIM

Download

Looking for another format? Having issues loading an existing format? Contact us
Advertisement - Login to hide

Notes

Basic altitude profile: - Ascent Rate: 2500ft/min - Ascent Speed: 250kts - Cruise Altitude: 35000ft - Cruise Speed: 420kts - Descent Rate: 1500ft/min - Descent Speed: 250kts Options: - Use NATs: no - Use PACOTS: no - Use low airways: no - Use high airways: no

Route

KMIA KEYW

ID Type Via Altitude Latitude Longitude Leg Dist Tot Dist Heading (true) Name
O KMIA APT - 0 ft / 0 m 25.79617˚ -80.28974˚ - 0 nm - Miami Intl
O KEYW APT - 0 ft / 0 m 24.55612˚ -81.75955˚ 109 nm 109 nm 227° / 227° Key West Intl

Altitude Profile

Advertisement - Login to hide

KMIA

Details ICAO KMIA (MIA)
Name Miami Intl
Region United States
Timezone America/New_York (UTC-5.0)
Stats Elevation 8 ft / 2 m (AMSL)
Location 25.796167° -80.289742°
Runways 4
Magnetic Variation 6.642° W

METAR

KMIA 170953Z 00000KT 10SM FEW032 SCT050 BKN250 19/18 A3018 RMK AO2 SLP220 T01940178

Decode

TAF

KMIA 170847Z 1709/1812 07005KT P6SM FEW035 SCT250 FM171500 10010KT P6SM SCT030 BKN250 FM180000 09006KT P6SM FEW025 SCT050 SCT250

Decode

Departure Runways

ID Width Length Bearing (true) Bearing (mag) Surface Threshold Offset Overrun Length
08L 151 ft / 46 m 8,588 ft / 2,618 m 87.35° 93.99° Asphalt 0 ft / 0 m 1,001 ft / 305 m
08R 200 ft / 61 m 10,490 ft / 3,197 m 87.37° 94.01° Asphalt 0 ft / 0 m 1,001 ft / 305 m
09 151 ft / 46 m 12,981 ft / 3,957 m 87.36° 94.00° Asphalt 1,348 ft / 411 m 1,001 ft / 305 m
12 151 ft / 46 m 9,353 ft / 2,851 m 119.60° 126.24° Asphalt 0 ft / 0 m 1,001 ft / 305 m
26L 200 ft / 61 m 10,490 ft / 3,197 m 267.38° 274.02° Asphalt 0 ft / 0 m 1,001 ft / 305 m
26R 151 ft / 46 m 8,588 ft / 2,618 m 267.37° 274.01° Asphalt 0 ft / 0 m 1,001 ft / 305 m
27 151 ft / 46 m 12,981 ft / 3,957 m 267.38° 274.02° Asphalt 1,270 ft / 387 m 899 ft / 274 m
30 151 ft / 46 m 9,353 ft / 2,851 m 299.61° 306.25° Asphalt 938 ft / 286 m 427 ft / 130 m

KEYW

Details ICAO KEYW (EYW)
Name Key West Intl
Region United States
Timezone America/New_York (UTC-5.0)
Stats Elevation 2 ft / 1 m (AMSL)
Location 24.556124° -81.759546°
Runways 1
Magnetic Variation 5.546° W

METAR

KEYW 170953Z AUTO 03005KT 10SM FEW048 21/19 A3017 RMK AO2 SLP214 T02110189 $

Decode

TAF

KEYW 170901Z 1709/1806 06005G15KT P6SM FEW015 SCT025 TEMPO 1711/1715 BKN015 FM171500 09011G20KT P6SM FEW020 SCT040 SCT250 TEMPO 1715/1719 BKN020

Decode

Destination Runways

ID Width Length Bearing (true) Bearing (mag) Surface Threshold Offset Overrun Length
09 100 ft / 30 m 4,794 ft / 1,461 m 89.38° 94.93° Asphalt 151 ft / 46 m 0 ft / 0 m
27 100 ft / 30 m 4,794 ft / 1,461 m 269.39° 274.94° Asphalt 151 ft / 46 m 0 ft / 0 m

Popular Alternatives